#timestamp,LO_Frequency,Hit,StdDev 
1510308015.5,286046994.1,N
1510308035.4,286046994.2,N
1510308055.2,286046992.1,N
1510308075.0,286046990.2,N
1510308075.9,286046990.2,N
1510308095.8,286046992.2,N
1510308115.6,286046993.4,N
1510308135.4,286046991.9,N
1510308155.2,286046994.4,N
1510308175.1,286046996.0,N
1510308176.0,286046996.0,N
1510308195.8,286046997.8,N
1510308215.6,286046995.1,N
1510308235.5,286046996.8,N
1510308255.3,286046995.8,N
1510308275.1,286046992.1,Y
1510308295.9,286047000.6,P
1510308315.7,286046999.4,N
1510308335.5,286047002.2,N
1510308355.4,286046999.4,N
1510308375.2,286046999.1,N
1510308395.0,286046998.8,N
1510308395.9,286046998.8,N
1510308415.8,286046996.5,N
1510308435.6,286046995.0,N
1510308455.4,286046995.2,N
1510308475.3,286046994.1,N
1510308495.1,286046993.8,N
1510308496.0,286046993.8,N
1510308515.8,286046999.2,N
1510308535.7,286047002.6,N
1510308555.5,286047000.3,N
1510308575.3,286047000.4,N
1510308595.2,286047001.4,N
1510308615.9,286047006.6,N
1510308635.7,286047011.1,Y
1510308655.6,286047010.1,P
1510308675.4,286047012.0,N
1510308695.2,286047012.1,N
1510308715.0,286047009.0,N
1510308715.9,286047009.0,N
1510308735.8,286047010.7,N
1510308755.6,286047008.3,N
1510308775.4,286047009.2,N
1510308795.3,286047001.5,N
1510308815.1,286047005.5,N
1510308835.8,286047008.8,N
1510308855.7,286047012.3,Y
1510308875.5,286047003.9,P
1510308895.3,286047000.1,N
1510308915.2,286046998.9,N
1510308935.9,286046996.9,N
1510308955.7,286046999.4,N
1510308975.6,286046995.1,N
1510308995.4,286046997.7,N
1510309015.2,286046997.5,N
1510309035.1,286046997.8,N
1510309036.0,286046997.8,N
1510309055.8,286046996.0,N
1510309075.6,286046992.8,N
1510309095.4,286046990.1,N
1510309115.3,286046993.8,N
1510309135.1,286046994.7,N
1510309155.8,286046993.5,N
1510309175.7,286046992.3,N
1510309195.5,286046993.2,N
1510309215.3,286046990.2,N
1510309235.2,286046990.1,N
1510309255.9,286046990.2,N
1510309275.7,286046992.4,N
1510309295.6,286046994.5,N
1510309315.4,286046995.7,N
1510309335.2,286046992.6,N
1510309355.0,286046992.0,N
1510309356.0,286046992.0,N
1510309375.8,286046994.3,N
1510309395.6,286046993.3,N
1510309415.4,286046993.5,N
1510309435.3,286046993.7,N
1510309455.1,286046995.2,N
1510309475.8,286046993.3,N
1510309495.7,286046996.4,N
1510309515.5,286046996.3,N
1510309535.3,286046992.0,Y
1510309555.2,286046998.1,P
1510309575.0,286047002.2,N
1510309575.9,286047002.2,N
1510309595.7,286046998.1,N
1510309615.6,286046999.9,N
1510309635.4,286047002.4,N
1510309655.2,286047000.7,N
1510309675.1,286047000.1,N
1510309676.0,286047000.1,N
1510309695.8,286047002.7,N
1510309715.6,286047002.1,N
1510309735.5,286047002.0,N
1510309755.3,286047001.4,N
1510309775.1,286047003.7,N
1510309795.9,286047003.7,N
1510309815.7,286047005.0,N
1510309835.5,286047004.5,N
1510309855.3,286047007.3,N
1510309875.2,286047009.1,Y
1510309895.0,286047005.4,P
1510309895.9,286047005.4,N
1510309915.8,286047007.5,P
1510309935.6,286047005.9,N
1510309955.4,286047003.2,N
1510309975.2,286047003.6,N
1510309995.1,286047004.5,N
1510309996.0,286047004.5,N
1510310015.8,286047006.7,Y
1510310035.6,286047001.9,P
1510310055.5,286047002.4,N
1510310075.3,286047004.3,P
1510310095.1,286047002.7,N
1510310115.9,286047002.3,N
1510310135.7,286047003.6,Y
1510310155.5,286047003.1,P
1510310175.4,286047004.6,P
1510310195.2,286047004.9,P
1510310215.0,286047007.4,Y
1510310215.9,286047007.4,P
1510310235.8,286047002.3,N
1510310255.6,286047004.2,N
1510310275.4,286047005.1,N
1510310295.3,286047003.3,N
1510310315.1,286047005.2,Y
1510310335.8,286047001.0,P
1510310355.7,286046999.1,N
1510310375.5,286046999.0,N
1510310395.3,286047000.6,N
1510310415.2,286047000.7,N
1510310435.9,286047000.4,N
1510310455.7,286046998.8,N
1510310475.6,286046999.4,N
1510310495.4,286046996.8,N
1510310515.2,286046994.9,N
1510310535.0,286046996.6,N
1510310536.0,286046996.6,N
1510310555.8,286046998.3,N
1510310575.6,286046997.8,N
1510310595.4,286046997.8,N
1510310615.3,286047000.9,N
1510310635.1,286047002.1,N
1510310655.8,286047004.3,N
1510310675.7,286047002.4,N
1510310695.5,286047002.0,N
1510310715.3,286046998.1,N
1510310735.2,286047000.4,N
1510310755.9,286046998.6,N
1510310775.7,286046997.7,N
1510310795.6,286046996.5,N
1510310815.4,286046993.5,N
1510310835.2,286046993.8,N
1510310855.0,286046992.0,N
1510310856.0,286046992.0,N
1510310875.8,286046991.2,N
1510310895.6,286046990.9,N
1510310915.4,286046991.9,N
1510310935.3,286046993.0,N
1510310955.1,286046994.1,N
1510310975.8,286046992.7,N
1510310995.7,286046990.7,N
1510311015.5,286046991.5,N
1510311035.3,286046990.7,N
1510311055.2,286046991.0,N
1510311075.9,286046993.0,N
1510311095.7,286046992.2,N
1510311115.6,286046992.1,N
1510311135.4,286046993.9,N
1510311155.2,286046994.2,N
1510311175.0,286046993.2,N
1510311176.0,286046993.2,N
1510311195.8,286046991.7,N
1510311215.6,286046992.5,N
1510311235.4,286046990.7,N
1510311255.3,286046992.5,N
1510311275.1,286046992.7,N
1510311295.8,286046994.7,N
1510311315.7,286046994.3,N
1510311335.5,286046993.2,Y
1510311355.3,286047000.7,P
1510311375.2,286047001.7,N
1510311395.0,286047003.7,N
1510311395.9,286047003.7,N
1510311415.7,286046999.7,N
1510311435.6,286046998.8,N
1510311455.4,286046994.2,N
1510311475.2,286046994.8,N
1510311495.1,286046995.5,N
1510311496.0,286046995.5,N
1510311515.8,286046994.7,N
1510311535.6,286046990.5,N
1510311555.5,286046993.3,N
1510311575.3,286046994.5,N
1510311595.1,286046993.5,N
